Le nostre stazioni meteo in Italia

Pubblicità
Il mio iltempo24.it
Grenoble/St.Geoirs, Francia (7486): Temperatura & dewpoint: 16.11.2019 08:00:00 - 22.11.2019 08:00:00 (CET)Grenoble/St.Geoirs, Francia (7486): Temperatura 5cm: 16.11.2019 08:00:00 - 22.11.2019 08:00:00 (CET)Grenoble/St.Geoirs, Francia (7486): Temperatura -20cm & Temperatura -100cm: 16.11.2019 08:00:00 - 22.11.2019 08:00:00 (CET)Grenoble/St.Geoirs, Francia (7486): velocità del vento & gusts: 16.11.2019 08:00:00 - 22.11.2019 08:00:00 (CET)Grenoble/St.Geoirs, Francia (7486): direzione del vento: 16.11.2019 08:00:00 - 22.11.2019 08:00:00 (CET)Grenoble/St.Geoirs, Francia (7486): reduced air pressure: 16.11.2019 08:00:00 - 22.11.2019 08:00:00 (CET)Grenoble/St.Geoirs, Francia (7486): visibility: 16.11.2019 08:00:00 - 22.11.2019 08:00:00 (CET)Grenoble/St.Geoirs, Francia (7486): ore di luce: 16.11.2019 08:00:00 - 22.11.2019 08:00:00 (CET)Grenoble/St.Geoirs, Francia (7486): precipitazioni: 16.11.2019 08:00:00 - 22.11.2019 08:00:00 (CET)
Data & Tempo tt [°C] td [°C] tt 5cm [°C] tt -20cm [°C] tt -100cm [°C] ff [km/h] ff [kn] fx [km/h] fx [kn] dd ppp [hPa] vv [km] sd [min] rr [mm]
22.11.2019 08:00:00 - - - - - - - - - - - - - -
22.11.2019 07:00:00 4,7 4,1 4,3 6,9 10,5 16 9 28 15 E 1008,4 3,1 0 0,0
22.11.2019 06:00:00 5,1 4,4 4,8 6,9 10,5 18 10 26 14 ENE 1008,8 3,4 0 0,0
22.11.2019 05:00:00 5,4 5,0 5,0 6,9 10,5 8 5 16 8 E 1009,2 5 0 0,0
22.11.2019 04:00:00 5,5 4,9 5,0 6,9 10,5 10 5 15 8 NE 1009,4 4,0 0 0,0
22.11.2019 03:00:00 5,3 4,7 5,0 6,9 10,5 13 7 18 10 E 1009,8 4,3 0 0,2
22.11.2019 02:00:00 5,4 4,8 5,0 6,9 10,5 10 5 17 9 ENE 1009,9 3,3 0 0,6
22.11.2019 01:00:00 5,4 4,8 5,1 6,9 10,5 6 3 15 8 E 1009,7 4,2 0 0,6
22.11.2019 00:00:00 5,5 4,8 5,2 6,9 10,5 12 6 18 10 E 1009,4 4,5 0 0,8
21.11.2019 23:00:00 5,4 4,7 4,9 6,8 10,5 9 5 16 9 ENE 1009,5 4,6 0 0,0
21.11.2019 22:00:00 5,3 4,7 5,0 6,8 10,6 13 7 22 12 E 1009,2 4,9 0 0,6
21.11.2019 21:00:00 5,6 5,0 5,1 6,8 10,6 13 7 18 10 E 1009,2 3,5 0 0,8
21.11.2019 20:00:00 5,8 4,8 5,2 6,8 10,6 13 7 20 11 ENE 1009,0 4,2 0 0,6
21.11.2019 19:00:00 6,1 4,3 5,2 6,7 10,6 14 8 21 12 ENE 1008,3 8 0 0,0
21.11.2019 18:00:00 5,9 4,4 5,2 6,7 10,6 12 7 22 12 E 1007,8 8 0 0,0
21.11.2019 17:00:00 5,8 4,3 5,3 6,6 10,6 14 8 20 11 E 1007,8 8 0 0,0
21.11.2019 16:00:00 7,0 4,5 6,8 6,6 10,6 13 7 20 11 ENE 1007,8 10 0 0,0
21.11.2019 15:00:00 6,9 4,4 7,1 6,5 10,6 13 7 18 10 E 1007,7 9 0 0,0
21.11.2019 14:00:00 6,7 4,2 6,2 6,5 10,6 14 8 25 14 E 1008,0 10 0 0,0
21.11.2019 13:00:00 6,8 4,3 7,4 6,5 10,6 16 9 29 16 E 1008,4 10 16 0,0
21.11.2019 12:00:00 7,0 4,3 7,0 6,5 10,6 20 11 30 16 E 1008,9 10 27 0,0
21.11.2019 11:00:00 6,0 4,2 5,2 6,5 10,6 21 12 35 19 E 1009,6 9 2 0,0
21.11.2019 10:00:00 4,8 3,1 4,7 6,5 10,7 27 14 35 19 E 1009,7 9 21 0,0
21.11.2019 09:00:00 3,8 2,6 1,1 6,5 10,7 24 13 32 17 E 1010,0 6 16 0,0
21.11.2019 08:00:00 1,6 1,0 0,3 6,5 10,7 18 10 23 12 E 1010,4 7 0 0,0
21.11.2019 07:00:00 2,4 1,5 1,3 6,6 10,7 17 9 29 16 E 1010,0 5 0 0,0
21.11.2019 06:00:00 2,7 1,4 1,2 6,6 10,7 21 11 29 16 E 1010,0 5 0 0,0
21.11.2019 05:00:00 2,1 1,4 0,5 6,6 10,7 20 11 25 14 E 1010,3 7 0 0,0
21.11.2019 04:00:00 2,4 1,5 1,7 6,6 10,7 22 12 29 16 E 1010,5 6 0 0,0
21.11.2019 03:00:00 2,6 1,7 1,8 6,6 10,7 23 12 27 15 E 1010,7 7 0 0,0
21.11.2019 02:00:00 3,4 2,4 1,8 6,6 10,8 18 10 23 13 E 1011,0 6 0 0,0
21.11.2019 01:00:00 4,1 2,4 3,1 6,6 10,8 20 11 28 15 E 1011,2 8 0 0,0
21.11.2019 00:00:00 4,0 2,7 3,3 6,6 10,8 18 10 24 13 E 1011,7 9 0 0,0
20.11.2019 23:00:00 4,6 3,1 3,9 6,6 10,8 15 8 21 12 E 1011,6 9 0 0,0
20.11.2019 22:00:00 4,6 2,9 4,1 6,6 10,8 13 7 23 12 E 1012,0 10 0 0,0
20.11.2019 21:00:00 5,1 2,9 3,8 6,6 10,8 14 8 22 12 ENE 1012,0 12 0 0,0
20.11.2019 20:00:00 4,4 2,9 0,9 6,6 10,8 13 7 21 11 E 1011,9 12 0 0,0
20.11.2019 19:00:00 4,7 2,7 3,2 6,6 10,8 14 7 20 11 ENE 1011,5 12 0 0,0
20.11.2019 18:00:00 4,2 2,7 1,4 6,5 10,9 16 9 20 11 E 1011,8 14 0 0,0
20.11.2019 17:00:00 4,9 2,4 2,1 6,5 10,9 10 6 17 9 E 1011,7 17 36 0,0
20.11.2019 16:00:00 7,9 4,3 8,5 6,5 10,9 14 7 19 10 E 1011,3 18 58 0,0
20.11.2019 15:00:00 8,1 3,7 8,7 6,4 10,9 14 8 23 12 E 1011,4 15 60 0,0
20.11.2019 14:00:00 7,2 3,1 7,4 6,4 10,9 16 8 23 13 E 1011,9 12 60 0,0
20.11.2019 13:00:00 6,2 2,3 6,5 6,4 10,9 18 10 21 12 E 1012,9 11 60 0,0
20.11.2019 12:00:00 5,1 1,6 5,4 6,4 10,9 14 8 18 10 E 1014,0 11 60 0,0
20.11.2019 11:00:00 4,7 1,4 4,5 6,4 10,9 12 6 16 9 E 1014,6 11 60 0,0
20.11.2019 10:00:00 2,7 0,9 0,3 6,4 10,9 5 3 9 5 SSE 1015,1 3,5 60 0,0
20.11.2019 09:00:00 0,1 -0,3 -4,6 6,5 11,0 3 1 9 5 SO 1015,5 5 52 0,0
20.11.2019 08:00:00 -1,2 -1,6 -4,3 6,5 11,0 6 3 11 6 SE 1015,8 5 0 0,0
20.11.2019 07:00:00 -0,9 -1,3 -3,7 6,5 11,0 6 3 13 7 ESE 1016,1 5 0 0,0
20.11.2019 06:00:00 -1,3 -1,6 -2,8 6,5 11,0 13 7 16 8 E 1016,2 2,8 0 0,0
20.11.2019 05:00:00 -0,2 -0,5 -2,7 6,5 11,0 3 2 9 5 SE 1016,8 1,4 0 0,0
20.11.2019 04:00:00 0,5 0,1 -1,3 6,5 11,0 3 2 11 6 E 1017,0 1,6 0 0,0
20.11.2019 03:00:00 1,0 0,6 -0,5 6,5 11,0 4 2 7 4 ESE 1017,2 1,9 0 0,0
20.11.2019 02:00:00 2,0 1,4 0,1 6,6 11,0 3 1 4 2 NE 1017,1 1,7 0 0,0
20.11.2019 01:00:00 2,6 1,9 1,1 6,6 11,0 3 2 6 3 O 1017,2 2,8 0 0,0
20.11.2019 00:00:00 2,9 2,0 1,6 6,6 11,1 3 2 8 4 N 1017,4 4,7 0 0,0
19.11.2019 23:00:00 3,3 1,8 1,5 6,6 11,1 3 2 9 5 NNO 1017,6 5 0 0,0
19.11.2019 22:00:00 3,6 2,0 2,0 6,6 11,1 2 1 13 7 S 1017,6 11 0 0,0
19.11.2019 21:00:00 3,8 2,2 1,9 6,6 11,1 7 4 16 9 E 1017,7 8 0 0,0
19.11.2019 20:00:00 4,3 2,3 2,8 6,6 11,1 10 5 19 10 NNE 1017,8 10 0 0,0
19.11.2019 19:00:00 4,4 2,6 1,9 6,6 11,1 4 2 13 7 N 1017,9 8 0 0,0
19.11.2019 18:00:00 4,3 2,6 1,7 6,6 11,1 3 2 11 6 NO 1017,7 12 0 0,0
19.11.2019 17:00:00 4,1 2,4 2,1 6,6 11,1 6 4 14 7 NO 1017,4 14 0 0,0
19.11.2019 16:00:00 4,5 1,9 2,5 6,6 11,1 5 3 8 4 OSO 1017,0 17 0 0,0
19.11.2019 15:00:00 4,5 1,0 2,7 6,6 11,2 4 2 12 6 E 1016,8 25 0 0,0
19.11.2019 14:00:00 4,4 1,2 3,5 6,6 11,2 5 3 24 13 E 1016,9 15 0 0,0
19.11.2019 13:00:00 4,5 1,3 4,7 6,6 11,2 13 7 24 13 N 1017,0 19 1 0,0
19.11.2019 12:00:00 3,9 0,9 4,1 6,6 11,2 5 3 14 7 N 1017,6 18 0 0,0
19.11.2019 11:00:00 3,4 0,6 2,6 6,6 11,2 4 2 11 6 E 1017,8 10 27 0,0
19.11.2019 10:00:00 2,3 0,7 0,3 6,7 11,3 5 3 16 9 E 1017,8 9 0 0,0
19.11.2019 09:00:00 0,3 -0,4 -2,9 6,7 11,3 3 2 10 5 NO 1017,8 13 0 0,0
19.11.2019 08:00:00 0,1 -1,5 -3,3 6,7 11,3 4 2 13 7 SSE 1017,3 14 0 0,0
19.11.2019 07:00:00 1,0 -1,1 -2,4 6,7 11,3 8 4 16 8 NE 1016,6 21 0 0,0
19.11.2019 06:00:00 2,0 -0,4 -0,8 6,7 11,3 5 3 21 11 NE 1016,3 20 0 0,0
19.11.2019 05:00:00 2,2 -0,2 -0,8 6,7 11,3 13 7 22 12 N 1016,3 14 0 0,0
19.11.2019 04:00:00 0,9 -1,2 -1,2 6,7 11,3 6 3 16 8 E 1016,8 10 0 0,0
19.11.2019 03:00:00 1,2 -0,3 -1,6 6,7 11,3 3 1 14 8 ENE 1017,1 12 0 0,0
19.11.2019 02:00:00 1,8 -0,3 -1,8 6,8 11,4 4 2 14 8 NE 1016,9 16 0 0,0
19.11.2019 01:00:00 1,1 -1,1 -2,9 6,8 11,4 5 3 9 5 NO 1017,2 11 0 0,0
19.11.2019 00:00:00 0,7 -0,6 -2,9 6,8 11,4 5 3 15 8 NNE 1017,8 12 0 0,0
18.11.2019 23:00:00 1,4 -0,4 -1,9 6,8 11,4 5 3 14 7 NE 1017,5 14 0 0,0
18.11.2019 22:00:00 2,3 0,5 -0,7 6,8 11,4 5 3 13 7 NNO 1017,2 15 0 0,0
18.11.2019 21:00:00 3,1 0,5 -1,3 6,8 11,4 6 3 17 9 N 1017,3 18 0 0,0
18.11.2019 20:00:00 0,3 -0,3 -1,7 6,8 11,4 6 4 11 6 E 1017,6 4,0 0 0,0
18.11.2019 19:00:00 0,2 -0,9 -2,1 6,8 11,4 6 3 9 5 E 1017,1 6 0 0,0
18.11.2019 18:00:00 1,6 0,4 -0,7 6,8 11,4 9 5 13 7 ENE 1016,2 10 0 0,0
18.11.2019 17:00:00 3,0 0,9 0,2 6,8 11,5 7 4 14 8 E 1015,7 16 34 0,0
18.11.2019 16:00:00 4,1 0,8 2,4 6,8 11,5 6 3 13 7 E 1015,3 17 1 0,0
18.11.2019 15:00:00 4,9 1,2 4,8 6,8 11,5 8 4 19 10 NNE 1015,0 9 26 0,0
18.11.2019 14:00:00 5,9 1,0 8,7 6,8 11,5 5 3 11 6 NNE 1014,2 21 52 0,0
18.11.2019 13:00:00 5,1 1,8 5,7 6,8 11,5 4 2 10 5 ONO 1014,2 18 42 0,0
18.11.2019 12:00:00 5,4 2,0 7,5 6,9 11,5 5 3 8 4 ESE 1014,3 6 60 0,0
18.11.2019 11:00:00 - - - - - - - - - - - - - -
18.11.2019 10:00:00 3,1 1,9 2,8 6,9 11,6 6 3 10 5 SSE 1014,2 5 60 0,0
18.11.2019 09:00:00 1,5 1,1 -0,2 6,9 11,6 5 3 10 6 E 1014,1 4,8 55 0,0
18.11.2019 08:00:00 0,6 0,3 -0,7 6,9 11,6 5 3 8 5 E 1013,9 3,2 0 0,0
18.11.2019 07:00:00 0,8 0,5 0,2 6,9 11,6 6 4 8 5 ONO 1013,5 4,2 0 0,0
18.11.2019 06:00:00 1,3 0,9 0,5 6,9 11,6 5 3 14 8 ENE 1012,8 6 0 0,0
18.11.2019 05:00:00 1,2 0,9 0,3 7,0 11,7 11 6 14 8 E 1012,2 4,4 0 0,0
18.11.2019 04:00:00 1,0 0,7 0,4 7,0 11,7 7 4 13 7 E 1011,9 5 0 0,0
18.11.2019 03:00:00 0,9 0,6 0,3 7,0 11,7 9 5 15 8 ENE 1011,7 6 0 0,0
18.11.2019 02:00:00 1,1 1,0 0,4 7,0 11,7 11 6 14 8 ENE 1011,1 4,6 0 0,0
18.11.2019 01:00:00 0,8 0,5 0,4 7,1 11,7 11 6 12 6 E 1011,1 3,5 0 0,2
18.11.2019 00:00:00 0,9 0,6 0,4 7,1 11,7 8 5 13 7 ENE 1010,9 4,5 0 0,8
17.11.2019 23:00:00 1,1 0,7 0,4 7,1 11,7 9 5 17 9 ENE 1010,5 6 0 0,6
17.11.2019 22:00:00 1,1 0,7 0,5 7,1 11,8 15 8 20 11 ENE 1010,3 6 0 0,6
17.11.2019 21:00:00 1,2 0,8 0,5 7,1 11,8 15 8 21 11 ENE 1009,8 4,0 0 0,2
17.11.2019 20:00:00 1,1 0,7 0,4 7,1 11,8 13 7 18 10 ENE 1009,7 3,4 0 0,0
17.11.2019 19:00:00 0,9 0,5 0,4 7,1 11,8 11 6 14 8 E 1009,5 2,6 0 0,2
17.11.2019 18:00:00 1,0 0,6 0,4 7,1 11,8 4 2 6 4 ENE 1009,2 3,0 0 0,2
17.11.2019 17:00:00 1,1 0,5 0,5 7,2 11,8 5 3 10 6 E 1009,0 3,7 0 0,2
17.11.2019 16:00:00 1,7 0,5 1,4 7,1 11,8 4 2 11 6 ENE 1008,5 3,2 0 0,0
17.11.2019 15:00:00 1,8 0,9 1,7 7,2 11,9 5 3 13 7 S 1007,9 4,3 0 0,0
17.11.2019 14:00:00 1,6 0,6 1,5 7,1 11,8 5 3 11 6 SSE 1007,8 2,6 0 0,4
17.11.2019 13:00:00 1,7 0,5 2,1 7,2 11,9 8 4 27 15 SO 1007,6 9 0 0,0
17.11.2019 12:00:00 1,4 0,7 3,0 7,2 11,9 19 11 24 13 SO 1007,5 3,7 20 0,0
17.11.2019 11:00:00 0,1 -0,3 0,1 7,2 11,9 8 4 12 6 OSO 1008,3 3,1 9 0,0
17.11.2019 10:00:00 -0,2 -0,3 -3,4 7,2 11,9 4 2 11 6 O 1008,5 6 17 0,0
17.11.2019 09:00:00 -1,4 -1,5 -4,8 7,2 12,0 8 4 17 9 ESE 1008,6 6 0 0,0
17.11.2019 08:00:00 -3,0 -3,1 -5,0 7,2 11,9 9 5 14 7 E 1009,1 0,2 0 0,0
17.11.2019 07:00:00 -3,8 -3,8 -6,2 7,2 11,9 5 3 9 5 S 1009,3 0,1 0 0,0
17.11.2019 06:00:00 -5,0 -5,3 -7,0 7,2 12,0 4 2 12 7 SSO 1009,5 0,1 0 0,0
17.11.2019 05:00:00 -2,8 -3,6 -6,4 7,3 12,0 8 4 18 10 ENE 1009,2 4,9 0 0,0
17.11.2019 04:00:00 -2,5 -3,5 -4,5 7,3 12,0 15 8 23 13 E 1009,4 11 0 0,0
17.11.2019 03:00:00 -1,0 -1,1 -6,5 7,3 12,0 14 8 19 10 ENE 1009,8 10 0 0,0
17.11.2019 02:00:00 -1,7 -2,0 -6,0 7,3 12,0 4 2 21 11 ENE 1010,3 11 0 0,0
17.11.2019 01:00:00 -2,1 -2,9 -4,2 7,3 12,1 16 9 25 13 E 1010,9 12 0 0,0
17.11.2019 00:00:00 0,5 0,1 -2,0 7,4 12,1 13 7 23 13 ENE 1011,1 9 0 0,0
16.11.2019 23:00:00 0,6 0,5 -3,1 7,4 12,1 18 10 26 14 ENE 1011,3 8 0 0,0
16.11.2019 22:00:00 -0,9 -1,2 -2,4 7,4 12,1 16 9 23 12 E 1012,2 8 0 0,0
16.11.2019 21:00:00 0,2 0,1 -2,0 7,4 12,1 13 7 19 10 E 1012,2 7 0 0,0
16.11.2019 20:00:00 -0,1 -0,2 -1,3 7,4 12,2 14 8 21 11 E 1012,5 8 0 0,0
16.11.2019 19:00:00 0,4 0,4 -0,7 7,4 12,2 20 11 26 14 E 1012,3 8 0 0,0
16.11.2019 18:00:00 0,1 0,1 0,0 7,4 12,2 18 10 26 14 E 1011,7 0,1 0 0,0
16.11.2019 17:00:00 0,3 0,3 0,1 7,5 12,2 22 12 26 14 E 1011,6 0,1 28 0,0
16.11.2019 16:00:00 0,7 0,7 0,8 7,5 12,2 13 7 23 12 E 1011,4 0,1 33 0,0
16.11.2019 15:00:00 1,1 1,0 1,2 7,5 12,2 16 9 22 12 E 1011,0 0,1 55 0,0
16.11.2019 14:00:00 1,4 1,1 0,1 7,5 12,2 11 6 23 12 E 1011,3 0,2 60 0,0
16.11.2019 13:00:00 1,5 1,2 0,2 7,5 12,3 12 6 22 12 ENE 1011,5 0,3 60 0,0
16.11.2019 12:00:00 1,3 1,0 1,6 7,5 12,3 16 8 22 12 ENE 1011,8 1,1 60 0,0
16.11.2019 11:00:00 0,9 0,8 1,0 7,6 12,3 13 7 20 11 ENE 1012,5 0,2 58 0,0
16.11.2019 10:00:00 0,7 0,7 0,1 7,6 12,3 14 8 18 10 ENE 1012,0 0,2 51 0,0
16.11.2019 09:00:00 0,2 0,2 -0,1 7,6 12,3 13 7 17 9 E 1011,6 0,1 1 0,0
16.11.2019 08:00:00 -1,4 -1,5 -0,2 7,6 12,3 0 0 12 6 N 1011,0 0,1 0 0,0

tt = Temperatura
td = dewpoint
tt 5cm = Temperatura 5cm
tt -20cm = Temperatura -20cm
tt -100cm = Temperatura -100cm
ff = velocità del vento
fx = gusts
dd = direzione del vento
ppp = reduced air pressure
vv = visibility
sd = ore di luce
rr = precipitazioni

Stazioni seguenti

WeatherPro
AMSI
MeteoEarth